Location: Sungai Liu
(2.3667°N, 113.8667°E)
Time: 13:14:10
(UTC+00:00)

SL-08 R/B - Pass Details

Date: 20 May 2022
Orbit: 945 x 1007 km, 83.0° (Epoch: 04 July)

Event Time Altitude Azimuth Distance (km) Brightness Sun altitude
Exits shadow 12:09:21 - 185° (S) 3,208 7.0 -24.4°
Reaches altitude 10° 12:10:44 10° 186° (S) 2,683 6.6 -24.7°
Maximum altitude 12:16:52 83° 273° (W) 958 4.4 -26.1°
Drops below altitude 10° 12:22:55 10° 1° (N) 2,654 7.0 -27.5°
Sets 12:25:24 0° 2° (N) 3,596 7.7 -28.1°
